Torna al catalogo

SPEKTR R

AttivoScienzaHEO
NORAD 37755·PAYLOAD·🇷🇺 Russia

Lanciato Jul 18, 2011 da Baikonur Cosmodrome

Loading…

Prossimi Passaggi (prossime 24 ore)

TLE

ObsoletoSource: Space-Track

Epoca: Oct 1, 2025, 20:46 UTC

1 37755U 11037A   25274.86529625 -.00000320  00000-0  00000-0 0  9998
2 37755  86.2960 317.6811 6943482 350.5069   4.1793  0.11323121  5611

Traccia SPEKTR R in tempo reale con AllMySat

Download on the App Store